Change the Weather History Date:

Monday, March 10, 2014

  Actual Average Record
Temperature  
Mean Temperature 54 °F 46 °F  
Max Temperature 70 °F 56 °F 78 °F (2009)
Min Temperature 38 °F 36 °F 12 °F (1932)
Degree Days  
Heating Degree Days 11 19  
Month to date heating degree days 261 208  
Since 1 July heating degree days 3915 3449  
Cooling Degree Days 0 0  
Month to date cooling degree days 0 0  
Year to date cooling degree days 0 0  
Growing Degree Days 4 (Base 50)    
Moisture  
Dew Point 34 °F    
Average Humidity 56    
Maximum Humidity 85    
Minimum Humidity 26    
Precipitation  
Precipitation 0.00 in 0.13 in 1.95 in (1952)
Month to date precipitation 0.94 1.25  
Year to date precipitation 7.10 7.67  
Snow  
Snow 0.00 in 0.00 in 5.20 in (1975)
Month to date snowfall 3.0 0.6  
Since 1 July snowfall 24.8 11.6  
Snow Depth 0.00 in    
Sea Level Pressure  
Sea Level Pressure 29.91 in    
Wind  
Wind Speed 10 mph (SW)    
Max Wind Speed 21 mph    
Max Gust Speed 25 mph    
Visibility 9 miles    
Events      
T = Trace of Precipitation, MM = Missing Value Source: NWS Daily Summary

Daily Weather History Graph

Daily Weather History Graph

Search for Another Location

Airport or City:

Trip Planner

Search our weather history database for the weather conditions in past years. The results will help you decide how hot, cold, wet, or windy it might be!

Date:

Astronomy

Mar. 10, 2014 Rise Set
Actual Time 8:01 AM EDT 7:45 PM EDT
Civil Twilight 7:35 AM EDT 8:11 PM EDT
Nautical Twilight 7:04 AM EDT 8:42 PM EDT
Astronomical Twilight 6:34 AM EDT 9:12 PM EDT
Moon 2:31 PM EDT (3/10) 4:09 AM EDT (3/10)
Length of Visible Light 12h 36m
Length of Day
11h 43m
Waxing Gibbous, 70% of the Moon is Illuminated
Mar 10
Waxing Gibbous
Mar 16
Full
Mar 23
Last Quarter
Mar 30
New
Apr 7
First Quarter

Hourly Weather History & Observations

Time (EDT) Temp. Windchill Dew Point Humidity Pressure Visibility Wind Dir Wind Speed Gust Speed Precip Events Conditions
12:56 AM 39.9 °F 36.7 °F 27.0 °F 60% 30.06 in 10.0 mi SW 4.6 mph - N/A   Clear
1:56 AM 41.0 °F 36.4 °F 28.0 °F 60% 30.06 in 10.0 mi SW 6.9 mph - N/A   Clear
2:56 AM 41.0 °F 36.4 °F 28.9 °F 62% 30.04 in 10.0 mi SW 6.9 mph - N/A   Clear
3:56 AM 41.0 °F 35.8 °F 30.9 °F 67% 30.03 in 10.0 mi WSW 8.1 mph - N/A   Clear
4:56 AM 39.9 °F 33.4 °F 30.9 °F 70% 30.01 in 8.0 mi WSW 10.4 mph - N/A   Clear
5:56 AM 39.0 °F 34.8 °F 32.0 °F 76% 30.01 in 7.0 mi SW 5.8 mph - N/A   Scattered Clouds
6:56 AM 39.0 °F 33.4 °F 33.1 °F 79% 30.00 in 6.0 mi SW 8.1 mph - N/A   Haze
7:56 AM 39.0 °F 34.8 °F 34.0 °F 82% 29.99 in 6.0 mi SW 5.8 mph - N/A   Haze
8:56 AM 39.9 °F 34.5 °F 35.1 °F 83% 29.99 in 5.0 mi SW 8.1 mph - N/A   Haze
9:56 AM 46.0 °F 41.0 °F 37.0 °F 71% 29.98 in 5.0 mi SW 10.4 mph - N/A   Haze
10:56 AM 51.1 °F - 39.0 °F 63% 29.96 in 6.0 mi SW 10.4 mph - N/A   Haze
11:56 AM 55.9 °F - 39.9 °F 55% 29.95 in 8.0 mi SW 12.7 mph 19.6 mph N/A   Scattered Clouds
12:56 PM 61.0 °F - 37.9 °F 42% 29.93 in 10.0 mi WSW 13.8 mph - N/A   Scattered Clouds
1:56 PM 64.0 °F - 37.0 °F 37% 29.89 in 10.0 mi SW 13.8 mph 21.9 mph N/A   Mostly Cloudy
2:56 PM 66.9 °F - 34.0 °F 30% 29.86 in 10.0 mi SW 12.7 mph 23.0 mph N/A   Mostly Cloudy
3:56 PM 68.0 °F - 33.1 °F 27% 29.83 in 10.0 mi SW 12.7 mph - N/A   Mostly Cloudy
4:56 PM 68.0 °F - 32.0 °F 26% 29.81 in 10.0 mi SSW 11.5 mph 23.0 mph N/A   Mostly Cloudy
5:56 PM 68.0 °F - 32.0 °F 26% 29.78 in 10.0 mi SSW 15.0 mph 21.9 mph N/A   Mostly Cloudy
6:56 PM 66.0 °F - 33.1 °F 29% 29.78 in 10.0 mi SW 13.8 mph 21.9 mph N/A   Mostly Cloudy
7:56 PM 64.0 °F - 34.0 °F 33% 29.78 in 10.0 mi SW 13.8 mph - N/A   Mostly Cloudy
8:56 PM 61.0 °F - 36.0 °F 39% 29.79 in 10.0 mi SSW 8.1 mph - N/A   Scattered Clouds
9:56 PM 59.0 °F - 37.0 °F 44% 29.80 in 10.0 mi SW 6.9 mph - N/A   Partly Cloudy
10:56 PM 59.0 °F - 37.9 °F 46% 29.81 in 10.0 mi SSW 6.9 mph - N/A   Clear
11:56 PM 57.9 °F - 37.9 °F 47% 29.80 in 10.0 mi SSW 5.8 mph - N/A   Clear